Regional Weather Roundup
Issued by NWS

Home | Current Version | Previous Version | Graphics & Text | Print | Product List | Glossary On
Versions: 1 2 3 4 5 6 7 8 9 10 11 12 13 14 15 16 17 18 19 20 21 22 23 24 25 26 27 28 29 30 31 32 33 34 35 36 37 38 39 40 41 42 43 44 45 46 47 48 49 50
177
ASUS44 KLIX 021010
RWRLA
LOUISIANA WEATHER ROUNDUP
NATIONAL WEATHER SERVICE NEW ORLEANS LA
500 AM CDT TUE SEP 02 2014

NOTE: "FAIR" INDICATES FEW OR NO CLOUDS BELOW 12,000 FEET WITH NO
      SIGNIFICANT WEATHER AND/OR OBSTRUCTIONS TO VISIBILITY.
      SKY/WX - SKY CONDITION AND SIGNIFICANT WEATHER.
      TMP - AIR TEMPERATURE.    DP   - DEWPOINT TEMPERATURE.
      RH  - RELATIVE HUMIDITY.  PRES - PRESSURE.
      HX  - HEAT INDEX.         WCI  - WIND CHILL INDEX.

*  THESE STATIONS ARE NOT NWS OR FAA STATIONS AND ARE NOT UNDER
   NWS QUALITY CONTROL.

LAZ040-048-061>063-065-066-069-021100-
SOUTHEAST LOUISIANA

CITY           SKY/WX    TMP DP  RH WIND       PRES   REMARKS
N.O. AUDUBON     N/A     78  78 100 MISG        N/A
N.O. INTL ARPT MOCLDY    80  75  84 CALM      30.02R
N.O. LAKEFRONT PTCLDY    79  77  94 SE5       30.02S
N.O. DOWNTOWN* FAIR      81  73  78 SE5       30.03R
SLIDELL        MOCLDY    77  75  93 CALM      30.02S
BATON ROUGE    PTCLDY    76  74  93 E3        30.01S
BOOTHVILLE     PTCLDY    82  77  84 SE3       30.03R
BELLE CHASSE   PTCLDY    79  74  84 CALM      30.02R
BOGALUSA*        N/A     76  73  88 CALM      30.04F
GALLIANO*      NOT AVBL
NEW ROADS*     FAIR      76  75  99 CALM      30.01R FOG
GONZALES*        N/A     75  75 100 CALM      30.01S
HAMMOND*       MOCLDY    77  73  88 CALM      30.04S
HOUMA*         CLEAR     76  73  90 CALM      30.02R FOG
PORT FOURCHON* MOSUNNY   84  75  74 S6        30.04R

$$

LAZ041-044-053-054-021100-
SOUTHWEST LOUISIANA

CITY           SKY/WX    TMP DP  RH WIND       PRES   REMARKS
LAKE CHARLES   MOCLDY    79  77  94 CALM      29.96F
LAFAYETTE      PTCLDY    77  75  93 CALM      30.00R
PATTERSON        N/A     75  75 100 CALM      30.03S
SALT POINT       N/A     85  78  80 CALM      30.00R HX  96
NEW IBERIA     CLEAR     77  75  93 CALM      30.00S
CHENAULT AIRPK NOT AVBL

$$

LAZ027-028-021100-
CENTRAL LOUISIANA

CITY           SKY/WX    TMP DP  RH WIND       PRES   REMARKS
FORT POLK      CLOUDY    75  75 100 SE7       29.98S FOG
ALEXANDRIA INT PTCLDY    75  75 100 SE5       29.98R
ALEXANDRIA     CLOUDY    76  73  91 CALM      30.00R

$$

LAZ001-002-021100-
NORTHWEST LOUISIANA

CITY           SKY/WX    TMP DP  RH WIND       PRES   REMARKS
SHREVEPORT     MOCLDY    77  75  93 S8        29.94R
BARKSDALE AFB  MOCLDY    77  75  94 S9        29.95S
DTN SHREVEPORT CLOUDY    79  75  87 S8        29.95R

$$

LAZ014-016-021100-
NORTHEAST LOUISIANA

CITY           SKY/WX    TMP DP  RH WIND       PRES   REMARKS
MONROE         CLOUDY    77  75  93 SE6       29.99S
TALLULAH       MOCLDY    76  74  93 S5        30.01R

$$




USA.gov is the U.S. government's official web portal to all federal, state and local government web resources and services.